Time,TemperatureF,DewpointF,PressureIn,WindDirection,WindDirectionDegrees,WindSpeedMPH,WindSpeedGustMPH,Humidity,HourlyPrecipIn,Conditions,Clouds,dailyrainin,SoftwareType,DateUTC
2013-07-13 00:01:00,70.0,61.0,30.01,NE,51,0.0,3.0,73,0.00,,,0.00,,2013-07-13 04:01:00,
2013-07-13 00:12:00,70.0,61.0,30.01,NE,56,0.0,5.0,73,0.00,,,0.00,,2013-07-13 04:12:00,
2013-07-13 00:32:00,70.0,61.0,30.01,NE,54,0.0,3.0,74,0.00,,,0.00,,2013-07-13 04:32:00,
2013-07-13 01:01:00,69.0,61.0,30.00,NE,54,0.0,0.0,76,0.00,,,0.00,,2013-07-13 05:01:00,
2013-07-13 01:22:00,68.0,61.0,30.00,NE,54,0.0,1.0,79,0.00,,,0.00,,2013-07-13 05:22:00,
2013-07-13 01:32:00,68.0,61.0,30.00,NE,54,0.0,0.0,78,0.00,,,0.00,,2013-07-13 05:32:00,
2013-07-13 01:42:00,68.0,61.0,30.00,NE,54,0.0,1.0,78,0.00,,,0.00,,2013-07-13 05:42:00,
2013-07-13 01:52:00,68.0,61.0,30.00,NE,54,0.0,1.0,78,0.00,,,0.00,,2013-07-13 05:52:00,
2013-07-13 02:02:00,68.0,61.0,30.00,NE,54,0.0,3.0,78,0.00,,,0.00,,2013-07-13 06:02:00,
2013-07-13 02:11:00,68.0,61.0,30.00,NE,52,0.0,3.0,77,0.00,,,0.00,,2013-07-13 06:11:00,
2013-07-13 02:32:00,68.0,60.0,30.00,NE,52,0.0,2.0,76,0.00,,,0.00,,2013-07-13 06:32:00,
2013-07-13 02:43:00,68.0,61.0,30.00,NE,52,0.0,2.0,77,0.00,,,0.00,,2013-07-13 06:43:00,
2013-07-13 02:52:00,68.0,61.0,30.00,NE,52,0.0,2.0,77,0.00,,,0.00,,2013-07-13 06:52:00,
2013-07-13 03:02:00,68.0,61.0,30.00,NE,52,0.0,1.0,77,0.00,,,0.00,,2013-07-13 07:02:00,
2013-07-13 03:11:00,68.0,61.0,30.00,NNE,23,0.0,5.0,77,0.00,,,0.00,,2013-07-13 07:11:00,
2013-07-13 03:22:00,68.0,61.0,30.00,NNE,23,0.0,5.0,77,0.00,,,0.00,,2013-07-13 07:22:00,
2013-07-13 03:33:00,67.0,60.0,30.00,NNE,23,0.0,0.0,78,0.00,,,0.00,,2013-07-13 07:33:00,
2013-07-13 03:44:00,67.0,60.0,30.00,NNE,23,0.0,0.0,79,0.00,,,0.00,,2013-07-13 07:44:00,
2013-07-13 03:53:00,66.0,60.0,30.00,NNE,23,0.0,0.0,80,0.00,,,0.00,,2013-07-13 07:53:00,
2013-07-13 04:02:00,66.0,60.0,30.00,NNE,23,0.0,0.0,80,0.00,,,0.00,,2013-07-13 08:02:00,
2013-07-13 04:12:00,66.0,60.0,30.00,NNE,23,0.0,0.0,82,0.00,,,0.00,,2013-07-13 08:12:00,
2013-07-13 04:22:00,66.0,60.0,30.00,NNE,23,0.0,0.0,82,0.00,,,0.00,,2013-07-13 08:22:00,
2013-07-13 04:33:00,66.0,60.0,29.99,NNE,23,0.0,0.0,82,0.00,,,0.00,,2013-07-13 08:33:00,
2013-07-13 04:43:00,66.0,60.0,29.99,NNE,23,0.0,0.0,82,0.00,,,0.00,,2013-07-13 08:43:00,
2013-07-13 04:52:00,66.0,61.0,29.99,NNE,23,0.0,0.0,83,0.00,,,0.00,,2013-07-13 08:52:00,
2013-07-13 05:02:00,66.0,61.0,29.99,NNE,23,0.0,0.0,83,0.00,,,0.00,,2013-07-13 09:02:00,
2013-07-13 05:11:00,65.0,60.0,29.98,NNE,23,0.0,0.0,83,0.00,,,0.00,,2013-07-13 09:11:00,
2013-07-13 05:22:00,65.0,60.0,29.98,NNE,23,0.0,0.0,83,0.00,,,0.00,,2013-07-13 09:22:00,
2013-07-13 05:33:00,65.0,60.0,29.98,NNE,23,0.0,0.0,84,0.00,,,0.00,,2013-07-13 09:33:00,
2013-07-13 05:43:00,65.0,60.0,29.99,NNE,23,0.0,0.0,84,0.00,,,0.00,,2013-07-13 09:43:00,
2013-07-13 05:53:00,65.0,60.0,29.99,NNE,23,0.0,0.0,84,0.00,,,0.00,,2013-07-13 09:53:00,
2013-07-13 06:01:00,64.0,59.0,29.99,NNE,21,0.0,0.0,85,0.00,,,0.00,,2013-07-13 10:01:00,
2013-07-13 06:11:00,64.0,60.0,29.99,NNE,21,0.0,0.0,86,0.00,,,0.00,,2013-07-13 10:11:00,
2013-07-13 06:32:00,65.0,61.0,30.00,NNE,21,0.0,0.0,86,0.00,,,0.00,,2013-07-13 10:32:00,
2013-07-13 06:43:00,66.0,61.0,30.01,NNE,21,0.0,0.0,85,0.00,,,0.00,,2013-07-13 10:43:00,
2013-07-13 06:52:00,66.0,61.0,30.01,NNE,21,0.0,0.0,85,0.00,,,0.00,,2013-07-13 10:52:00,
2013-07-13 07:02:00,66.0,61.0,30.01,NNE,21,0.0,0.0,85,0.00,,,0.00,,2013-07-13 11:02:00,
2013-07-13 07:11:00,66.0,61.0,30.02,NNE,21,0.0,0.0,85,0.00,,,0.00,,2013-07-13 11:11:00,
2013-07-13 07:22:00,66.0,61.0,30.02,NNE,21,0.0,0.0,85,0.00,,,0.00,,2013-07-13 11:22:00,
2013-07-13 07:32:00,66.0,61.0,30.03,NNE,21,0.0,0.0,85,0.00,,,0.00,,2013-07-13 11:32:00,
2013-07-13 07:43:00,66.0,61.0,30.03,NNE,21,0.0,0.0,85,0.00,,,0.00,,2013-07-13 11:43:00,
2013-07-13 07:52:00,66.0,61.0,30.03,NNE,21,0.0,0.0,85,0.00,,,0.00,,2013-07-13 11:52:00,
2013-07-13 08:02:00,66.0,62.0,30.03,NNE,21,0.0,0.0,86,0.00,,,0.00,,2013-07-13 12:02:00,
2013-07-13 08:12:00,67.0,63.0,30.03,NNE,21,0.0,0.0,86,0.00,,,0.00,,2013-07-13 12:12:00,
2013-07-13 08:32:00,67.0,63.0,30.04,NNE,16,0.0,0.0,86,0.00,,,0.00,,2013-07-13 12:32:00,
2013-07-13 08:43:00,67.0,63.0,30.05,North,357,0.0,0.0,87,0.00,,,0.00,,2013-07-13 12:43:00,
2013-07-13 08:52:00,67.0,63.0,30.05,North,357,0.0,0.0,87,0.00,,,0.00,,2013-07-13 12:52:00,
2013-07-13 09:01:00,67.0,63.0,30.06,North,357,0.0,0.0,86,0.00,,,0.00,,2013-07-13 13:01:00,
2013-07-13 09:22:00,67.0,63.0,30.06,ENE,61,0.0,0.0,86,0.00,,,0.00,,2013-07-13 13:22:00,
2013-07-13 09:32:00,68.0,64.0,30.06,ENE,61,0.0,0.0,86,0.00,,,0.00,,2013-07-13 13:32:00,
2013-07-13 10:02:00,70.0,65.0,30.06,East,99,0.0,0.0,83,0.00,,,0.00,,2013-07-13 14:02:00,
2013-07-13 10:11:00,71.0,65.0,30.06,East,99,0.0,0.0,81,0.00,,,0.00,,2013-07-13 14:11:00,
2013-07-13 10:32:00,71.0,65.0,30.06,NNE,30,0.0,2.0,81,0.00,,,0.00,,2013-07-13 14:32:00,
2013-07-13 10:43:00,72.0,65.0,30.06,NNE,30,0.0,0.0,80,0.00,,,0.00,,2013-07-13 14:43:00,
2013-07-13 10:53:00,72.0,65.0,30.06,NNE,31,0.0,2.0,80,0.00,,,0.00,,2013-07-13 14:53:00,
2013-07-13 11:02:00,72.0,65.0,30.06,NNE,31,0.0,2.0,80,0.00,,,0.00,,2013-07-13 15:02:00,
2013-07-13 11:12:00,73.0,66.0,30.07,SSE,168,1.0,5.0,80,0.00,,,0.00,,2013-07-13 15:12:00,
2013-07-13 11:22:00,74.0,67.0,30.07,ESE,107,0.0,4.0,78,0.00,,,0.00,,2013-07-13 15:22:00,
2013-07-13 11:33:00,74.0,67.0,30.07,ESE,107,0.0,4.0,78,0.00,,,0.00,,2013-07-13 15:33:00,
2013-07-13 11:43:00,74.0,66.0,30.07,SW,227,1.0,5.0,77,0.00,,,0.00,,2013-07-13 15:43:00,
2013-07-13 11:53:00,75.0,68.0,30.07,SE,131,0.0,3.0,78,0.00,,,0.00,,2013-07-13 15:53:00,
2013-07-13 12:02:00,75.0,68.0,30.07,SE,131,0.0,3.0,78,0.00,,,0.00,,2013-07-13 16:02:00,
2013-07-13 12:11:00,76.0,68.0,30.07,SSE,155,1.0,2.0,76,0.00,,,0.00,,2013-07-13 16:11:00,
2013-07-13 12:22:00,77.0,68.0,30.07,SSE,157,2.0,6.0,75,0.00,,,0.00,,2013-07-13 16:22:00,
2013-07-13 12:33:00,77.0,68.0,30.07,SSE,157,2.0,6.0,75,0.00,,,0.00,,2013-07-13 16:33:00,
2013-07-13 12:43:00,77.0,68.0,30.07,ESE,117,0.0,1.0,74,0.00,,,0.00,,2013-07-13 16:43:00,
2013-07-13 12:53:00,78.0,68.0,30.07,SE,138,0.0,3.0,72,0.00,,,0.00,,2013-07-13 16:53:00,
2013-07-13 13:01:00,78.0,68.0,30.07,SE,138,0.0,3.0,72,0.00,,,0.00,,2013-07-13 17:01:00,
2013-07-13 13:12:00,79.0,70.0,30.07,SSW,212,0.0,5.0,73,0.00,,,0.00,,2013-07-13 17:12:00,
2013-07-13 13:22:00,80.0,70.0,30.07,South,181,0.0,6.0,72,0.00,,,0.00,,2013-07-13 17:22:00,
2013-07-13 13:33:00,80.0,70.0,30.07,South,181,0.0,6.0,72,0.00,,,0.00,,2013-07-13 17:33:00,
2013-07-13 13:43:00,80.0,70.0,30.07,SSE,167,4.0,6.0,71,0.00,,,0.00,,2013-07-13 17:43:00,
2013-07-13 13:52:00,80.0,68.0,30.07,SSE,150,0.0,6.0,67,0.00,,,0.00,,2013-07-13 17:52:00,
2013-07-13 14:01:00,80.0,68.0,30.07,SSE,150,0.0,6.0,67,0.00,,,0.00,,2013-07-13 18:01:00,
2013-07-13 14:11:00,80.0,69.0,30.07,South,174,1.0,5.0,69,0.00,,,0.00,,2013-07-13 18:11:00,
2013-07-13 14:22:00,80.0,69.0,30.06,SSW,193,0.0,7.0,69,0.00,,,0.00,,2013-07-13 18:22:00,
2013-07-13 14:32:00,80.0,69.0,30.06,SSW,193,0.0,7.0,69,0.00,,,0.00,,2013-07-13 18:32:00,
2013-07-13 14:44:00,81.0,69.0,30.06,SSE,165,0.0,6.0,68,0.00,,,0.00,,2013-07-13 18:44:00,
2013-07-13 14:53:00,80.0,69.0,30.06,SSE,151,1.0,5.0,70,0.00,,,0.00,,2013-07-13 18:53:00,
2013-07-13 15:02:00,80.0,69.0,30.06,SSE,151,1.0,5.0,70,0.00,,,0.00,,2013-07-13 19:02:00,
2013-07-13 15:11:00,80.0,69.0,30.05,SE,124,2.0,7.0,69,0.00,,,0.00,,2013-07-13 19:11:00,
2013-07-13 15:22:00,81.0,69.0,30.05,SSE,147,0.0,8.0,68,0.00,,,0.00,,2013-07-13 19:22:00,
2013-07-13 15:32:00,81.0,69.0,30.05,SSE,147,0.0,8.0,68,0.00,,,0.00,,2013-07-13 19:32:00,
2013-07-13 15:44:00,81.0,69.0,30.04,SSE,148,1.0,8.0,67,0.00,,,0.00,,2013-07-13 19:44:00,
2013-07-13 15:52:00,80.0,68.0,30.04,South,171,2.0,10.0,68,0.00,,,0.00,,2013-07-13 19:52:00,
2013-07-13 16:01:00,80.0,68.0,30.04,South,171,2.0,10.0,68,0.00,,,0.00,,2013-07-13 20:01:00,
2013-07-13 16:11:00,81.0,69.0,30.04,SSE,154,2.0,6.0,68,0.00,,,0.00,,2013-07-13 20:11:00,
2013-07-13 16:22:00,82.0,69.0,30.04,ENE,75,0.0,6.0,65,0.00,,,0.00,,2013-07-13 20:22:00,
2013-07-13 16:33:00,82.0,69.0,30.04,ENE,75,0.0,6.0,65,0.00,,,0.00,,2013-07-13 20:33:00,
2013-07-13 16:43:00,81.0,69.0,30.04,SSE,147,0.0,7.0,66,0.00,,,0.00,,2013-07-13 20:43:00,
2013-07-13 16:52:00,78.0,67.0,30.05,ESE,110,0.0,10.0,70,0.00,,,0.00,,2013-07-13 20:52:00,
2013-07-13 17:02:00,78.0,67.0,30.05,ESE,110,0.0,10.0,70,0.00,,,0.00,,2013-07-13 21:02:00,
2013-07-13 17:12:00,78.0,67.0,30.06,SE,131,0.0,8.0,70,0.00,,,0.00,,2013-07-13 21:12:00,
2013-07-13 17:22:00,79.0,68.0,30.06,SE,137,0.0,5.0,70,0.00,,,0.00,,2013-07-13 21:22:00,
2013-07-13 17:32:00,79.0,68.0,30.06,SE,137,0.0,5.0,70,0.00,,,0.00,,2013-07-13 21:32:00,
2013-07-13 17:43:00,79.0,68.0,30.05,SSE,154,0.0,6.0,70,0.00,,,0.00,,2013-07-13 21:43:00,
2013-07-13 17:53:00,79.0,68.0,30.05,SSW,196,3.0,7.0,70,0.00,,,0.00,,2013-07-13 21:53:00,
2013-07-13 18:01:00,79.0,68.0,30.05,SSW,196,3.0,7.0,70,0.00,,,0.00,,2013-07-13 22:01:00,
2013-07-13 18:12:00,79.0,68.0,30.04,SSE,148,0.0,6.0,70,0.00,,,0.00,,2013-07-13 22:12:00,
2013-07-13 18:22:00,78.0,68.0,30.04,SE,130,0.0,3.0,72,0.00,,,0.00,,2013-07-13 22:22:00,
2013-07-13 18:32:00,78.0,68.0,30.04,SE,130,0.0,3.0,72,0.00,,,0.00,,2013-07-13 22:32:00,
2013-07-13 18:43:00,78.0,69.0,30.04,SE,141,0.0,3.0,73,0.00,,,0.00,,2013-07-13 22:43:00,
2013-07-13 18:53:00,78.0,69.0,30.05,SSW,210,0.0,2.0,74,0.00,,,0.00,,2013-07-13 22:53:00,
2013-07-13 19:02:00,78.0,69.0,30.05,SSW,210,0.0,2.0,74,0.00,,,0.00,,2013-07-13 23:02:00,
2013-07-13 19:11:00,78.0,69.0,30.05,SE,124,0.0,0.0,73,0.00,,,0.00,,2013-07-13 23:11:00,
2013-07-13 19:22:00,78.0,69.0,30.05,SSE,154,1.0,2.0,74,0.00,,,0.00,,2013-07-13 23:22:00,
2013-07-13 19:32:00,78.0,69.0,30.05,SSE,154,1.0,2.0,74,0.00,,,0.00,,2013-07-13 23:32:00,
2013-07-13 19:42:00,77.0,68.0,30.05,SE,145,1.0,2.0,74,0.00,,,0.00,,2013-07-13 23:42:00,
2013-07-13 19:53:00,77.0,69.0,30.05,SE,145,0.0,0.0,77,0.00,,,0.00,,2013-07-13 23:53:00,
2013-07-13 20:01:00,77.0,69.0,30.05,SE,145,0.0,0.0,77,0.00,,,0.00,,2013-07-14 00:01:00,
2013-07-13 20:12:00,76.0,68.0,30.05,South,185,0.0,0.0,77,0.00,,,0.00,,2013-07-14 00:12:00,
2013-07-13 20:21:00,76.0,69.0,30.06,NE,49,0.0,0.0,79,0.00,,,0.00,,2013-07-14 00:21:00,
2013-07-13 20:33:00,76.0,69.0,30.06,NE,49,0.0,0.0,79,0.00,,,0.00,,2013-07-14 00:33:00,
2013-07-13 20:42:00,75.0,69.0,30.06,NE,49,0.0,0.0,81,0.00,,,0.00,,2013-07-14 00:42:00,
2013-07-13 20:53:00,75.0,69.0,30.07,NE,49,0.0,0.0,81,0.00,,,0.00,,2013-07-14 00:53:00,
2013-07-13 21:02:00,75.0,69.0,30.07,NE,49,0.0,0.0,81,0.00,,,0.00,,2013-07-14 01:02:00,
2013-07-13 21:11:00,74.0,68.0,30.07,ENE,65,0.0,0.0,82,0.00,,,0.00,,2013-07-14 01:11:00,
2013-07-13 21:22:00,74.0,68.0,30.07,ENE,65,0.0,0.0,83,0.00,,,0.00,,2013-07-14 01:22:00,
2013-07-13 21:32:00,74.0,68.0,30.07,ENE,65,0.0,0.0,83,0.00,,,0.00,,2013-07-14 01:32:00,
2013-07-13 21:43:00,73.0,68.0,30.07,ENE,65,0.0,0.0,85,0.00,,,0.00,,2013-07-14 01:43:00,
2013-07-13 21:52:00,73.0,69.0,30.08,ENE,65,0.0,0.0,86,0.00,,,0.00,,2013-07-14 01:52:00,
2013-07-13 22:02:00,73.0,69.0,30.08,ENE,65,0.0,0.0,86,0.00,,,0.00,,2013-07-14 02:02:00,
2013-07-13 22:11:00,73.0,69.0,30.08,ENE,65,0.0,0.0,86,0.00,,,0.00,,2013-07-14 02:11:00,
2013-07-13 22:22:00,73.0,69.0,30.09,ENE,65,0.0,0.0,87,0.00,,,0.00,,2013-07-14 02:22:00,
2013-07-13 22:32:00,73.0,69.0,30.09,ENE,65,0.0,0.0,87,0.00,,,0.00,,2013-07-14 02:32:00,
2013-07-13 22:43:00,73.0,69.0,30.09,ENE,65,0.0,0.0,86,0.00,,,0.00,,2013-07-14 02:43:00,
2013-07-13 22:53:00,73.0,69.0,30.10,ENE,65,0.0,0.0,86,0.00,,,0.00,,2013-07-14 02:53:00,
2013-07-13 23:01:00,73.0,69.0,30.10,ENE,65,0.0,0.0,86,0.00,,,0.00,,2013-07-14 03:01:00,
2013-07-13 23:11:00,73.0,68.0,30.10,ENE,65,0.0,0.0,85,0.00,,,0.00,,2013-07-14 03:11:00,
2013-07-13 23:22:00,73.0,69.0,30.10,ENE,65,0.0,0.0,86,0.00,,,0.00,,2013-07-14 03:22:00,
2013-07-13 23:32:00,73.0,69.0,30.10,ENE,65,0.0,0.0,86,0.00,,,0.00,,2013-07-14 03:32:00,
2013-07-13 23:43:00,72.0,68.0,30.10,ENE,65,0.0,0.0,87,0.00,,,0.00,,2013-07-14 03:43:00,
2013-07-13 23:53:00,72.0,68.0,30.10,ENE,65,0.0,0.0,88,0.00,,,0.00,,2013-07-14 03:53:00,